Refine Search
Year Filed

2009 ×

Court

Puerto Rico ×

Click on desired case number or refine your search to continue

Case TitleCourtCase NoChpDate FiledClosedDisposition
CERTENEJAS INCORPORADOPuerto Rico3:09-bk-084681110/02/200904/14/2011Discharge Not Applicable
PMC MARKETING CORPPuerto Rico3:09-bk-02048703/18/2009
ROYAL CAR RENTAL INCPuerto Rico3:09-bk-022761103/26/200902/04/2011
HERMANOS TORRES PEREZ INCPuerto Rico2:09-bk-055851107/07/200908/17/2020Dismissed for Other Reason
OCEAN BAY PROPERTIES INCPuerto Rico3:09-bk-02800704/08/2009
BAERGA DOMOULIN INCPuerto Rico3:09-bk-00811702/05/200902/20/2014Discharge Not Applicable
PRIME R CONSTRUCTION CORPPuerto Rico3:09-bk-096321111/10/200902/15/2011
NEW YORK MORTGAGE BANKERS INCPuerto Rico3:09-bk-02852704/09/2009
YMAS INVENTORY MANAGEMENT CORPPuerto Rico3:09-bk-02049703/18/2009
GREEN WOODS DEVELOPMENT INCPuerto Rico3:09-bk-026841104/03/200903/18/2014Dismissed for Other Reason 06/26/2013
SERVICIOS DE DESCUENTO EN COMPRA INCPuerto Rico3:09-bk-008321102/06/2009
TROPICAL AUTO PAINT INCPuerto Rico3:09-bk-00753702/04/2009
CREW MANAGEMENT INCPuerto Rico3:09-bk-010371102/17/2009
COOP DE CONSUMIDORES DEL NOROESTEPuerto Rico3:09-bk-08645710/09/200907/11/2016Discharge Not Applicable
DAN & JOE INCPuerto Rico3:09-bk-00025701/05/200904/28/2009Standard Discharge
FLEXIBLE PACKAGING COMPANY INCPuerto Rico3:09-bk-023351103/28/2009
BITHORN TRAVEL CORPORATIONPuerto Rico3:09-bk-103871112/03/200908/17/2010Dismissed for Other Reason 06/17/2010
CENTRO DIAGNOSTICO Y TRATAMIENTO DR CAPARROS INCPuerto Rico3:09-bk-068171108/19/2009
CAGUAS BODY PARTS INCPuerto Rico3:09-bk-080521109/25/200910/05/2012Discharge Not Applicable
COMPRESORES Y EQUIPOS INCPuerto Rico3:09-bk-021931103/24/200901/21/2011Dismissed for Other Reason 09/07/2010
CALEB MEDICAL SUPPLIES INCPuerto Rico3:09-bk-012211102/23/200909/30/2010Dismissed for Other Reason
HURRICANE TECHNOLOGICAL SYSTEMS CORPPuerto Rico3:09-bk-00515701/29/2009
ALUMINUM & MILLWORKS ETC INCPuerto Rico3:09-bk-03649705/05/200905/12/2014
WINNERS AUTO GROUP INCPuerto Rico2:09-bk-02732704/06/200910/12/2012
CENTRO DE CUIDADO TITI NORMA INCPuerto Rico2:09-bk-058271107/15/2009
ELMENDORF COLORS INCPuerto Rico3:09-bk-08391709/30/200912/15/2014Discharge Not Applicable
NAGUABO TEXACO INCPuerto Rico3:09-bk-03286704/27/200903/06/2012Discharge Not Applicable
LA CELINA SERVICES INCPuerto Rico3:09-bk-01081702/18/200905/13/2010Standard Discharge
COMPANIA EL MUEBLE INCPuerto Rico3:09-bk-08040709/25/2009
PACKAGING SOLUTIONS INCPuerto Rico3:09-bk-023361103/28/2009
RUED INCPuerto Rico3:09-bk-044811106/01/200901/05/2011Standard Discharge
LEE BROTHERS IMPORT CORPPuerto Rico3:09-bk-03296704/28/200911/30/2010Discharge Not Applicable
RESTAURANTE CAPRICHO'S INCPuerto Rico3:09-bk-11078712/24/200910/23/2014Discharge Not Applicable
PRESTIGE PROPERTY MANAGEMENT INCPuerto Rico3:09-bk-02941704/14/200909/08/2009Discharge Not Applicable
ACCU MAIL OF PUERTO RICO INCPuerto Rico3:09-bk-107121112/15/200904/05/2010Dismissed for Other Reason 03/18/2010
AGUADA COMMUNITY CLINICPuerto Rico3:09-bk-07551709/08/2009
RONA DISTRIBUTORS INCPuerto Rico3:09-bk-05382706/30/2009
MEGA POWER CORPORATIONPuerto Rico3:09-bk-040561105/19/200901/15/2010Discharge Not Applicable 12/14/2009
IMPRESOS QUINTANA INCPuerto Rico3:09-bk-100361111/23/200901/28/2011Dismissed for Other Reason 08/26/2010
RR CONTRACTOR ENG CORPPuerto Rico3:09-bk-01178702/20/200905/19/2011Standard Discharge
PANADERIA Y REPOSTERIA APOLO DE PARANA INCPuerto Rico3:09-bk-11192712/30/200905/06/2010Standard Discharge
IPM SUPPLY INCPuerto Rico2:09-bk-06241707/30/200906/21/2011Discharge Not Applicable
CASA DE NOVIAS LAS RIVERA INCPuerto Rico3:09-bk-103401112/01/200901/24/2011Dismissed for Other Reason 12/13/2010
NOVA TECH COMPUTERS CORPPuerto Rico3:09-bk-07160708/28/2009
EDITORIAL SEMANA INCPuerto Rico3:09-bk-106911112/14/200907/03/2012Discharge Not Applicable
COSTA BONITA BEACH RESORT INCPuerto Rico3:09-bk-006991102/03/200910/11/2011Dismissed for Other Reason 05/10/2011
JM GARDENING SERVICES CORPPuerto Rico3:09-bk-00967702/12/200908/20/2010Discharge Not Applicable